Centerview, MO

6:52 AM CST on February 08, 2016 (GMT -0600)
Skyhaven

Weather History for KRCM - November, 2013

Change the Weather History Date:

Monday, November 11, 2013

  Actual Average (KSZL) Record (KSZL)
Temperature  
Mean Temperature 46 °F -  
Max Temperature 62 °F 53 °F 76 °F (2015)
Min Temperature 30 °F 36 °F 24 °F (2014)
Degree Days  
Heating Degree Days 19    
Moisture  
Dew Point 36 °F    
Average Humidity 66    
Maximum Humidity 87    
Minimum Humidity 54    
Precipitation  
Precipitation 0.00 in - - ()
Sea Level Pressure  
Sea Level Pressure 30.29 in    
Wind  
Wind Speed 9 mph (West)    
Max Wind Speed 22 mph    
Max Gust Speed 32 mph    
Visibility 10 miles    
Events Rain    
Averages and records for this station are not official NWS values.
T = Trace of Precipitation, MM = Missing Value Source: NWS Daily Summary

Daily Weather History Graph

Daily Weather History Graph

Search for Another Location

Airport or City:

Trip Planner

Search our weather history database for the weather conditions in past years. The results will help you decide how hot, cold, wet, or windy it might be!

Date:

Astronomy

Nov. 11, 2013 Rise Set
Actual Time 6:53 AM CST 5:04 PM CST
Civil Twilight 6:25 AM CST 5:32 PM CST
Nautical Twilight 5:53 AM CST 6:04 PM CST
Astronomical Twilight 5:21 AM CST 6:36 PM CST
Moon 1:42 PM CST (11/11) 12:43 AM CST (11/11)
Length of Visible Light 11h 07m
Length of Day
10h 11m
Waxing Gibbous, 66% of the Moon is Illuminated
Nov 11
Waxing Gibbous
Nov 17
Full
Nov 25
Last Quarter
Dec 2
New
Dec 9
First Quarter

Hourly Weather History & Observations

Time (CST) Temp. Windchill Dew Point Humidity Pressure Visibility Wind Dir Wind Speed Gust Speed Precip Events Conditions
12:15 AM 51.8 °F - 35.6 °F 54% 30.23 in 10.0 mi South 3.5 mph - N/A   Overcast
12:35 AM 51.8 °F - 35.6 °F 54% 30.22 in 10.0 mi SSE 5.8 mph - N/A   Overcast
12:55 AM 51.8 °F - 35.6 °F 54% 30.22 in 10.0 mi South 6.9 mph - N/A   Overcast
1:15 AM 51.8 °F - 35.6 °F 54% 30.22 in 10.0 mi South 5.8 mph - N/A   Overcast
1:35 AM 51.8 °F - 35.6 °F 54% 30.21 in 10.0 mi South 4.6 mph - N/A   Overcast
1:55 AM 51.8 °F - 35.6 °F 54% 30.21 in 10.0 mi South 4.6 mph - N/A   Overcast
2:15 AM 51.8 °F - 35.6 °F 54% 30.21 in 10.0 mi South 5.8 mph - N/A   Overcast
2:35 AM 51.8 °F - 37.4 °F 58% 30.20 in 10.0 mi South 4.6 mph - N/A   Overcast
2:55 AM 51.8 °F - 37.4 °F 58% 30.20 in 10.0 mi South 6.9 mph - N/A   Overcast
3:15 AM 51.8 °F - 37.4 °F 58% 30.20 in 10.0 mi SSW 6.9 mph - N/A   Overcast
3:35 AM 51.8 °F - 37.4 °F 58% 30.19 in 10.0 mi South 6.9 mph - N/A   Overcast
3:55 AM 51.8 °F - 37.4 °F 58% 30.19 in 10.0 mi South 5.8 mph - N/A   Overcast
4:15 AM 51.8 °F - 39.2 °F 62% 30.19 in 10.0 mi South 6.9 mph - N/A   Overcast
4:35 AM 51.8 °F - 39.2 °F 62% 30.19 in 10.0 mi South 6.9 mph - N/A   Overcast
4:55 AM 51.8 °F - 39.2 °F 62% 30.19 in 10.0 mi South 5.8 mph - N/A   Overcast
5:15 AM 51.8 °F - 39.2 °F 62% 30.19 in 10.0 mi South 4.6 mph - N/A   Overcast
5:35 AM 51.8 °F - 41.0 °F 67% 30.19 in 10.0 mi South 5.8 mph - N/A   Overcast
5:55 AM 51.8 °F - 41.0 °F 67% 30.18 in 10.0 mi South 5.8 mph - N/A   Overcast
6:15 AM 51.8 °F - 41.0 °F 67% 30.18 in 10.0 mi South 5.8 mph - N/A   Overcast
6:35 AM 51.8 °F - 41.0 °F 67% 30.19 in 10.0 mi South 5.8 mph - N/A   Overcast
6:55 AM 51.8 °F - 41.0 °F 67% 30.19 in 10.0 mi South 6.9 mph - N/A   Overcast
7:15 AM 51.8 °F - 41.0 °F 67% 30.20 in 10.0 mi South 8.1 mph - N/A   Overcast
7:35 AM 53.6 °F - 42.8 °F 67% 30.20 in 10.0 mi South 6.9 mph - N/A   Overcast
7:55 AM 53.6 °F - 42.8 °F 67% 30.20 in 10.0 mi South 4.6 mph - N/A   Overcast
8:15 AM 53.6 °F - 42.8 °F 67% 30.20 in 10.0 mi South 5.8 mph - N/A   Overcast
8:35 AM 53.6 °F - 42.8 °F 67% 30.20 in 10.0 mi SSW 6.9 mph - N/A   Overcast
8:55 AM 55.4 °F - 44.6 °F 67% 30.21 in 10.0 mi SSW 8.1 mph - N/A   Overcast
9:15 AM 55.4 °F - 44.6 °F 67% 30.20 in 10.0 mi SSW 5.8 mph - N/A   Overcast
9:35 AM 57.2 °F - 44.6 °F 63% 30.20 in 10.0 mi SSW 8.1 mph - N/A   Overcast
10:15 AM 59.0 °F - 44.6 °F 59% 30.21 in 10.0 mi SW 8.1 mph - N/A   Overcast
10:35 AM 59.0 °F - 44.6 °F 59% 30.20 in 10.0 mi SW 6.9 mph - N/A   Overcast
10:55 AM 59.0 °F - 44.6 °F 59% 30.20 in 10.0 mi SSW 9.2 mph - N/A   Overcast
11:15 AM 60.8 °F - 44.6 °F 55% 30.20 in 10.0 mi SW 11.5 mph - N/A   Overcast
11:35 AM 62.6 °F - 46.4 °F 55% 30.18 in 10.0 mi WSW 11.5 mph - N/A   Overcast
11:55 AM 62.6 °F - 46.4 °F 55% 30.18 in 10.0 mi WSW 10.4 mph - N/A   Overcast
12:15 PM 60.8 °F - 46.4 °F 59% 30.18 in 10.0 mi West 8.1 mph - N/A   Overcast
12:35 PM 60.8 °F - 46.4 °F 59% 30.17 in 10.0 mi West 8.1 mph - N/A   Overcast
12:55 PM 60.8 °F - 46.4 °F 59% 30.17 in 10.0 mi West 8.1 mph - N/A   Overcast
1:15 PM 60.8 °F - 48.2 °F 63% 30.17 in 10.0 mi WNW 8.1 mph - N/A   Overcast
1:35 PM 60.8 °F - 48.2 °F 63% 30.17 in 10.0 mi NW 6.9 mph - N/A   Overcast
1:55 PM 55.4 °F - 48.2 °F 77% 30.18 in 10.0 mi North 12.7 mph 21.9 mph N/A   Overcast
2:15 PM 55.4 °F - 48.2 °F 77% 30.19 in 10.0 mi NNW 15.0 mph 19.6 mph N/A   Overcast
2:35 PM 51.8 °F - 46.4 °F 82% 30.21 in 7.0 mi NNW 19.6 mph 26.5 mph N/A   Overcast
2:55 PM 46.4 °F 40.4 °F 42.8 °F 87% 30.23 in 7.0 mi North 13.8 mph 21.9 mph N/A   Overcast
3:15 PM 44.6 °F 36.9 °F 37.4 °F 76% 30.25 in 10.0 mi North 18.4 mph 25.3 mph N/A   Overcast
3:35 PM 42.8 °F 36.2 °F 37.4 °F 81% 30.27 in 10.0 mi North 12.7 mph 20.7 mph N/A   Drizzle
3:55 PM 42.8 °F 35.8 °F 37.4 °F 81% 30.29 in 10.0 mi North 13.8 mph 21.9 mph N/A Rain Light Rain
4:15 PM 42.8 °F 36.6 °F 35.6 °F 76% 30.30 in 10.0 mi North 11.5 mph 21.9 mph N/A   Overcast
4:35 PM 42.8 °F 35.1 °F 33.8 °F 70% 30.31 in 10.0 mi North 16.1 mph 27.6 mph N/A   Overcast
4:55 PM 41.0 °F 31.4 °F 33.8 °F 76% 30.33 in 10.0 mi North 21.9 mph 27.6 mph N/A   Light Drizzle
5:35 PM 41.0 °F 32.5 °F 32.0 °F 70% 30.35 in 10.0 mi North 17.3 mph 27.6 mph N/A   Overcast
5:55 PM 41.0 °F 31.6 °F 32.0 °F 70% 30.38 in 10.0 mi North 20.7 mph 27.6 mph N/A   Overcast
6:15 PM 39.2 °F 30.5 °F 32.0 °F 75% 30.39 in 10.0 mi North 16.1 mph 25.3 mph N/A   Overcast
6:35 PM 37.4 °F 27.2 °F 32.0 °F 81% 30.41 in 10.0 mi North 19.6 mph 28.8 mph N/A   Overcast
6:55 PM 37.4 °F 27.8 °F 30.2 °F 75% 30.42 in 10.0 mi NNW 17.3 mph 24.2 mph N/A   Overcast
7:15 PM 35.6 °F 25.2 °F 28.4 °F 75% 30.43 in 10.0 mi North 18.4 mph 32.2 mph N/A   Overcast
7:35 PM 33.8 °F 22.5 °F 26.6 °F 75% 30.45 in 10.0 mi North 19.6 mph 28.8 mph N/A   Overcast
7:55 PM 33.8 °F 23.9 °F 26.6 °F 75% 30.47 in 10.0 mi North 15.0 mph 25.3 mph N/A   Overcast
8:15 PM 33.8 °F 22.2 °F 26.6 °F 75% 30.48 in 10.0 mi North 20.7 mph 26.5 mph N/A   Overcast
8:35 PM 32.0 °F 21.6 °F 24.8 °F 75% 30.50 in 10.0 mi North 15.0 mph 27.6 mph N/A   Overcast
8:55 PM 32.0 °F 21.2 °F 23.0 °F 69% 30.52 in 10.0 mi North 16.1 mph 29.9 mph N/A   Overcast
9:15 PM 32.0 °F 21.6 °F 23.0 °F 69% 30.53 in 10.0 mi NNW 15.0 mph 24.2 mph N/A   Overcast
9:35 PM 32.0 °F 21.6 °F 21.2 °F 64% 30.54 in 10.0 mi North 15.0 mph 24.2 mph N/A   Overcast
9:55 PM 32.0 °F 20.8 °F 21.2 °F 64% 30.55 in 10.0 mi North 17.3 mph 25.3 mph N/A   Overcast
10:15 PM 32.0 °F 21.6 °F 21.2 °F 64% 30.56 in 10.0 mi North 15.0 mph 23.0 mph N/A   Overcast
10:35 PM 30.2 °F 19.8 °F 21.2 °F 69% 30.58 in 10.0 mi North 13.8 mph 23.0 mph N/A   Overcast
10:55 PM 30.2 °F 20.2 °F 21.2 °F 69% 30.59 in 10.0 mi North 12.7 mph 23.0 mph N/A   Scattered Clouds
11:15 PM 30.2 °F 19.8 °F 21.2 °F 69% 30.60 in 10.0 mi North 13.8 mph 21.9 mph N/A   Scattered Clouds
11:35 PM 30.2 °F 20.2 °F 17.6 °F 60% 30.61 in 10.0 mi North 12.7 mph 20.7 mph N/A   Clear
11:55 PM 30.2 °F 19.3 °F 19.4 °F 64% 30.62 in 10.0 mi North 15.0 mph 20.7 mph N/A   Clear